| time (UTC) | temp F | wind direction | speed MPH | gust MPH | rain 1hr in | rain 24hr in | rain mn in | humidity % | barometer mb |
| 20260505121518 | 38 | 9 | 2.0 | 6.0 | 0.00 | 0.00 | 0.00 | 60 | 1009.4 |
| 20260505121005 | 37 | 280 | 3.0 | 9.0 | 0.00 | 0.00 | 0.00 | 60 | 1009.2 |
| 20260505120506 | 37 | 293 | 4.0 | 9.0 | 0.00 | 0.00 | 0.00 | 60 | 1009.2 |
| 20260505120005 | 37 | 332 | 6.0 | 9.0 | 0.00 | 0.00 | 0.00 | 60 | 1009.0 |
| 20260505115007 | 37 | 288 | 3.0 | 7.0 | 0.00 | 0.00 | 0.00 | 61 | 1008.9 |
| 20260505114516 | 37 | 293 | 3.0 | 6.0 | 0.00 | 0.00 | 0.00 | 61 | 1008.9 |
| 20260505114008 | 37 | 308 | 2.0 | 12.0 | 0.00 | 0.00 | 0.00 | 61 | 1008.8 |
| 20260505113503 | 37 | 288 | 2.0 | 12.0 | 0.00 | 0.00 | 0.00 | 61 | 1008.7 |
| 20260505113016 | 37 | 319 | 3.0 | 8.0 | 0.00 | 0.00 | 0.00 | 60 | 1008.6 |
| 20260505112510 | 37 | 279 | 2.0 | 6.0 | 0.00 | 0.00 | 0.00 | 61 | 1008.5 |
| 20260505112004 | 37 | 326 | 2.0 | 6.0 | 0.00 | 0.00 | 0.00 | 61 | 1008.5 |
| 20260505111505 | 37 | 324 | 3.0 | 7.0 | 0.00 | 0.00 | 0.00 | 61 | 1008.4 |
| 20260505111005 | 37 | 339 | 4.0 | 7.0 | 0.00 | 0.00 | 0.00 | 61 | 1008.3 |
| 20260505110505 | 37 | 325 | 2.0 | 5.0 | 0.00 | 0.00 | 0.00 | 61 | 1008.3 |
| 20260505102010 | 38 | 308 | 3.0 | 11.0 | 0.00 | 0.00 | 0.00 | 61 | 1008.2 |
| 20260505101522 | 38 | 329 | 3.0 | 11.0 | 0.00 | 0.00 | 0.00 | 60 | 1008.1 |
| 20260505101003 | 39 | 346 | 2.0 | 6.0 | 0.00 | 0.00 | 0.00 | 60 | 1008.2 |
| 20260505100503 | 39 | 325 | 1.0 | 9.0 | 0.00 | 0.00 | 0.00 | 60 | 1008.1 |
| 20260505100016 | 39 | 304 | 4.0 | 9.0 | 0.00 | 0.00 | 0.00 | 60 | 1008.1 |
| 20260505095503 | 39 | 319 | 3.0 | 7.0 | 0.00 | 0.00 | 0.00 | 60 | 1008.1 |
| 20260505095006 | 39 | 327 | 2.0 | 8.0 | 0.00 | 0.00 | 0.00 | 60 | 1008.1 |
| 20260505094513 | 39 | 317 | 4.0 | 10.0 | 0.00 | 0.00 | 0.00 | 59 | 1008.1 |
| 20260505094006 | 39 | 304 | 2.0 | 10.0 | 0.00 | 0.00 | 0.00 | 59 | 1007.9 |
| 20260505093503 | 39 | 296 | 3.0 | 7.0 | 0.00 | 0.00 | 0.00 | 59 | 1007.9 |
| 20260505093023 | 39 | 320 | 3.0 | 6.0 | 0.00 | 0.00 | 0.00 | 58 | 1007.9 |
| 20260505092506 | 40 | 321 | 3.0 | 8.0 | 0.00 | 0.00 | 0.00 | 57 | 1007.8 |
| 20260505092010 | 40 | 312 | 1.0 | 8.0 | 0.00 | 0.00 | 0.00 | 58 | 1007.7 |
| 20260505091518 | 40 | 306 | 4.0 | 8.0 | 0.00 | 0.00 | 0.00 | 57 | 1007.6 |
| 20260505091008 | 40 | 343 | 4.0 | 12.0 | 0.00 | 0.00 | 0.00 | 56 | 1007.5 |
| 20260505090510 | 40 | 302 | 4.0 | 13.0 | 0.00 | 0.00 | 0.00 | 56 | 1007.6 |
| 20260505085504 | 40 | 332 | 5.0 | 10.0 | 0.00 | 0.00 | 0.00 | 55 | 1007.5 |
| 20260505085005 | 40 | 5 | 4.0 | 12.0 | 0.00 | 0.00 | 0.00 | 55 | 1007.4 |
| 20260505084507 | 40 | 278 | 4.0 | 12.0 | 0.00 | 0.00 | 0.00 | 55 | 1007.2 |
| 20260505084005 | 41 | 319 | 7.0 | 12.0 | 0.00 | 0.00 | 0.00 | 54 | 1007.1 |
| 20260505083509 | 41 | 280 | 2.0 | 15.0 | 0.00 | 0.00 | 0.00 | 54 | 1007.1 |
| 20260505083015 | 41 | 290 | 5.0 | 15.0 | 0.00 | 0.00 | 0.00 | 54 | 1007.1 |
| 20260505082504 | 41 | 300 | 6.0 | 13.0 | 0.00 | 0.00 | 0.00 | 54 | 1007.1 |
| 20260505082009 | 41 | 320 | 6.0 | 13.0 | 0.00 | 0.00 | 0.00 | 53 | 1006.9 |
| 20260505081521 | 41 | 333 | 5.0 | 11.0 | 0.00 | 0.00 | 0.00 | 53 | 1006.9 |
| 20260505081009 | 41 | 290 | 5.0 | 11.0 | 0.00 | 0.00 | 0.00 | 53 | 1006.7 |
| 20260505080506 | 41 | 299 | 6.0 | 11.0 | 0.00 | 0.00 | 0.00 | 53 | 1006.5 |
| 20260505080016 | 41 | 271 | 5.0 | 11.0 | 0.00 | 0.00 | 0.00 | 53 | 1006.5 |
| 20260505075506 | 41 | 261 | 5.0 | 12.0 | 0.00 | 0.00 | 0.00 | 53 | 1006.5 |
| 20260505075002 | 41 | 310 | 5.0 | 12.0 | 0.00 | 0.00 | 0.00 | 52 | 1006.5 |
| 20260505074504 | 41 | 305 | 7.0 | 12.0 | 0.00 | 0.00 | 0.00 | 53 | 1006.5 |
| 20260505074004 | 41 | 281 | 6.0 | 11.0 | 0.00 | 0.00 | 0.00 | 53 | 1006.4 |
| 20260505073503 | 41 | 292 | 6.0 | 11.0 | 0.00 | 0.00 | 0.00 | 54 | 1006.5 |
| 20260505073008 | 41 | 300 | 5.0 | 10.0 | 0.00 | 0.00 | 0.00 | 53 | 1006.5 |
| 20260505072505 | 41 | 297 | 5.0 | 10.0 | 0.00 | 0.00 | 0.00 | 54 | 1006.5 |
| 20260505072009 | 42 | 295 | 3.0 | 10.0 | 0.00 | 0.00 | 0.00 | 54 | 1006.5 |
| 20260505071505 | 42 | 322 | 3.0 | 12.0 | 0.00 | 0.00 | 0.00 | 54 | 1006.5 |
| 20260505071004 | 42 | 288 | 6.0 | 12.0 | 0.00 | 0.00 | 0.00 | 53 | 1006.6 |
| 20260505070509 | 42 | 303 | 5.0 | 12.0 | 0.00 | 0.00 | 0.00 | 53 | 1006.6 |
| 20260505070016 | 42 | 286 | 7.0 | 14.0 | 0.00 | 0.00 | 0.00 | 54 | 1006.6 |
| 20260505065510 | 41 | 287 | 7.0 | 14.0 | 0.00 | 0.00 | 0.00 | 54 | 1006.7 |
| 20260505065010 | 41 | 284 | 5.0 | 13.0 | 0.00 | 0.00 | 0.00 | 56 | 1006.6 |
| 20260505064518 | 40 | 308 | 9.0 | 12.0 | 0.00 | 0.00 | 0.00 | 57 | 1006.6 |
| 20260505064010 | 40 | 314 | 5.0 | 10.0 | 0.00 | 0.00 | 0.00 | 58 | 1006.7 |
| 20260505063011 | 40 | 303 | 3.0 | 8.0 | 0.00 | 0.00 | 0.00 | 60 | 1006.8 |
| 20260505062506 | 40 | 293 | 2.0 | 7.0 | 0.00 | 0.00 | 0.00 | 60 | 1006.8 |
| 20260505062004 | 40 | 284 | 3.0 | 6.0 | 0.00 | 0.00 | 0.00 | 60 | 1006.8 |
| 20260505061515 | 40 | 273 | 3.0 | 8.0 | 0.00 | 0.00 | 0.00 | 61 | 1006.9 |
| 20260505061006 | 40 | 284 | 4.0 | 8.0 | 0.00 | 0.00 | 0.00 | 61 | 1006.8 |
| 20260505060510 | 40 | 294 | 1.0 | 7.0 | 0.00 | 0.00 | 0.00 | 61 | 1006.8 |
| 20260505060010 | 40 | 282 | 3.0 | 7.0 | 0.00 | 0.00 | 0.00 | 61 | 1006.7 |
| 20260505055510 | 40 | 276 | 3.0 | 7.0 | 0.00 | 0.00 | 0.00 | 60 | 1006.8 |
| 20260505055011 | 40 | 294 | 3.0 | 9.0 | 0.00 | 0.00 | 0.00 | 61 | 1006.8 |
| 20260505054007 | 40 | 262 | 3.0 | 4.0 | 0.00 | 0.00 | 0.00 | 60 | 1006.7 |
| 20260505053510 | 40 | 265 | 2.0 | 4.0 | 0.00 | 0.00 | 0.00 | 60 | 1006.6 |
| 20260505053028 | 40 | 278 | 2.0 | 8.0 | 0.00 | 0.00 | 0.00 | 59 | 1006.6 |
| 20260505052009 | 41 | 265 | 3.0 | 7.0 | 0.00 | 0.00 | 0.00 | 59 | 1006.5 |
| 20260505051508 | 41 | 275 | 3.0 | 7.0 | 0.00 | 0.00 | 0.00 | 59 | 1006.5 |
| 20260505051006 | 41 | 271 | 3.0 | 7.0 | 0.00 | 0.00 | 0.00 | 58 | 1006.5 |
| 20260505050507 | 41 | 300 | 4.0 | 7.0 | 0.00 | 0.00 | 0.00 | 58 | 1006.5 |
| 20260505041513 | 42 | 270 | 3.0 | 7.0 | 0.00 | 0.00 | 0.00 | 54 | 1006.3 |
| 20260505041009 | 42 | 288 | 3.0 | 6.0 | 0.00 | 0.00 | 0.00 | 54 | 1006.4 |
| 20260505040506 | 42 | 252 | 2.0 | 4.0 | 0.00 | 0.00 | 0.00 | 53 | 1006.3 |
| 20260505040014 | 42 | 266 | 2.0 | 4.0 | 0.00 | 0.00 | 0.00 | 53 | 1006.3 |
| 20260505035507 | 42 | 254 | 2.0 | 6.0 | 0.00 | 0.00 | 0.00 | 52 | 1006.2 |
| 20260505035008 | 43 | 255 | 3.0 | 7.0 | 0.00 | 0.00 | 0.00 | 52 | 1006.3 |
| 20260505034505 | 43 | 267 | 3.0 | 7.0 | 0.00 | 0.00 | 0.00 | 51 | 1006.3 |
| 20260505034003 | 43 | 268 | 2.0 | 6.0 | 0.00 | 0.00 | 0.00 | 50 | 1006.4 |
| 20260505033006 | 43 | 287 | 2.0 | 4.0 | 0.00 | 0.00 | 0.00 | 49 | 1006.4 |
| 20260505032503 | 44 | 269 | 1.0 | 4.0 | 0.00 | 0.00 | 0.00 | 49 | 1006.4 |
| 20260505032005 | 44 | 279 | 2.0 | 7.0 | 0.00 | 0.00 | 0.00 | 49 | 1006.4 |
| 20260505031513 | 44 | 290 | 4.0 | 8.0 | 0.00 | 0.00 | 0.00 | 48 | 1006.4 |
| 20260505031003 | 44 | 271 | 3.0 | 8.0 | 0.00 | 0.00 | 0.00 | 47 | 1006.4 |
| 20260505030504 | 45 | 268 | 4.0 | 8.0 | 0.00 | 0.00 | 0.00 | 48 | 1006.4 |
| 20260505030006 | 45 | 290 | 4.0 | 8.0 | 0.00 | 0.00 | 0.00 | 47 | 1006.2 |
| 20260505025509 | 45 | 288 | 4.0 | 8.0 | 0.00 | 0.00 | 0.00 | 46 | 1006.2 |
| 20260505025006 | 46 | 271 | 3.0 | 6.0 | 0.00 | 0.00 | 0.00 | 45 | 1006.2 |
| 20260505024505 | 46 | 281 | 3.0 | 8.0 | 0.00 | 0.00 | 0.00 | 45 | 1006.1 |
| 20260505024003 | 46 | 287 | 4.0 | 8.0 | 0.00 | 0.00 | 0.00 | 44 | 1006.1 |
| 20260505023504 | 46 | 279 | 3.0 | 9.0 | 0.00 | 0.00 | 0.00 | 43 | 1006.0 |
| 20260505023006 | 47 | 324 | 4.0 | 10.0 | 0.00 | 0.00 | 0.00 | 1006.0 | |
| 20260505022003 | 47 | 289 | 5.0 | 10.0 | 0.00 | 0.00 | 0.00 | 42 | 1006.0 |
| 20260505021507 | 47 | 306 | 5.0 | 11.0 | 0.00 | 0.00 | 0.00 | 42 | 1005.9 |
| 20260505021004 | 47 | 285 | 7.0 | 17.0 | 0.00 | 0.00 | 0.00 | 42 | 1005.8 |
| 20260505020504 | 48 | 317 | 4.0 | 17.0 | 0.00 | 0.00 | 0.00 | 42 | 1005.7 |
| 20260505020004 | 48 | 274 | 6.0 | 16.0 | 0.00 | 0.00 | 0.00 | 41 | 1005.7 |
| 20260505015505 | 48 | 292 | 5.0 | 19.0 | 0.00 | 0.00 | 0.00 | 41 | 1005.5 |
| 20260505015005 | 48 | 307 | 10.0 | 19.0 | 0.00 | 0.00 | 0.00 | 42 | 1005.5 |
| 20260505014510 | 48 | 284 | 10.0 | 19.0 | 0.00 | 0.00 | 0.00 | 42 | 1005.5 |
| 20260505014006 | 49 | 304 | 9.0 | 19.0 | 0.00 | 0.00 | 0.00 | 42 | 1005.2 |
| 20260505013504 | 49 | 270 | 9.0 | 15.0 | 0.00 | 0.00 | 0.00 | 42 | 1005.1 |
| 20260505013007 | 49 | 283 | 9.0 | 18.0 | 0.00 | 0.00 | 0.00 | 42 | 1005.0 |
| 20260505012505 | 49 | 300 | 10.0 | 20.0 | 0.00 | 0.00 | 0.00 | 42 | 1004.9 |
| 20260505011004 | 50 | 284 | 12.0 | 22.0 | 0.00 | 0.00 | 0.00 | 41 | 1004.6 |
| 20260505010013 | 51 | 284 | 12.0 | 20.0 | 0.00 | 0.00 | 0.00 | 40 | 1004.3 |
| 20260505005503 | 51 | 294 | 7.0 | 20.0 | 0.00 | 0.00 | 0.00 | 41 | 1004.1 |
| 20260505005004 | 51 | 279 | 9.0 | 17.0 | 0.00 | 0.00 | 0.00 | 40 | 1004.0 |
| 20260505004509 | 51 | 319 | 8.0 | 17.0 | 0.00 | 0.00 | 0.00 | 40 | 1004.0 |
| 20260505004005 | 52 | 304 | 8.0 | 16.0 | 0.00 | 0.00 | 0.00 | 40 | 1003.9 |
| 20260505003502 | 52 | 275 | 8.0 | 16.0 | 0.00 | 0.00 | 0.00 | 40 | 1003.9 |
| 20260505003005 | 52 | 345 | 6.0 | 14.0 | 0.00 | 0.00 | 0.00 | 40 | 1003.9 |
| 20260505002506 | 52 | 335 | 8.0 | 16.0 | 0.00 | 0.00 | 0.00 | 41 | 1003.8 |
| 20260505002005 | 52 | 324 | 5.0 | 16.0 | 0.00 | 0.00 | 0.00 | 40 | 1003.8 |
| 20260505001005 | 53 | 299 | 13.0 | 20.0 | 0.00 | 0.00 | 0.00 | 40 | 1003.7 |
| 20260505000503 | 53 | 298 | 10.0 | 19.0 | 0.00 | 0.00 | 0.00 | 39 | 1003.7 |
| 20260504235003 | 53 | 299 | 10.0 | 20.0 | 0.00 | 0.00 | 0.00 | 39 | 1003.5 |
| 20260504234508 | 53 | 290 | 14.0 | 22.0 | 0.00 | 0.00 | 0.00 | 40 | 1003.4 |
| 20260504234001 | 54 | 287 | 12.0 | 22.0 | 0.00 | 0.00 | 0.00 | 40 | 1003.4 |
| 20260504233503 | 54 | 315 | 11.0 | 20.0 | 0.00 | 0.00 | 0.00 | 41 | 1003.3 |
| 20260504233010 | 54 | 275 | 10.0 | 19.0 | 0.00 | 0.00 | 0.00 | 41 | 1003.2 |
| 20260504232504 | 54 | 271 | 13.0 | 19.0 | 0.00 | 0.00 | 0.00 | 39 | 1003.1 |
| 20260504232007 | 55 | 283 | 11.0 | 19.0 | 0.00 | 0.00 | 0.00 | 40 | 1003.1 |
| 20260504231509 | 55 | 316 | 9.0 | 20.0 | 0.00 | 0.00 | 0.00 | 40 | 1003.0 |
| 20260504231007 | 55 | 280 | 9.0 | 20.0 | 0.00 | 0.00 | 0.00 | 40 | 1002.9 |
| 20260504230508 | 56 | 330 | 11.0 | 23.0 | 0.00 | 0.00 | 0.00 | 41 | 1003.0 |
| 20260504230011 | 56 | 281 | 15.0 | 23.0 | 0.00 | 0.00 | 0.00 | 39 | 1002.9 |
| 20260504224003 | 57 | 284 | 13.0 | 23.0 | 0.00 | 0.00 | 0.00 | 40 | 1002.4 |
| 20260504223503 | 57 | 285 | 17.0 | 21.0 | 0.00 | 0.00 | 0.00 | 39 | 1002.2 |
| 20260504223011 | 57 | 302 | 13.0 | 24.0 | 0.00 | 0.00 | 0.00 | 38 | 1002.1 |
| 20260504222507 | 58 | 306 | 13.0 | 24.0 | 0.00 | 0.00 | 0.00 | 38 | 1002.0 |
| 20260504222007 | 58 | 302 | 10.0 | 23.0 | 0.00 | 0.00 | 0.00 | 39 | 1001.8 |
| 20260504221509 | 58 | 319 | 12.0 | 23.0 | 0.00 | 0.00 | 0.00 | 39 | 1001.7 |
| 20260504221006 | 59 | 297 | 11.0 | 21.0 | 0.00 | 0.00 | 0.00 | 37 | 1001.7 |
| 20260504220504 | 59 | 277 | 13.0 | 24.0 | 0.00 | 0.00 | 0.00 | 37 | 1001.5 |
| 20260504220008 | 59 | 288 | 12.0 | 24.0 | 0.00 | 0.00 | 0.00 | 36 | 1001.5 |
| 20260504215510 | 59 | 271 | 16.0 | 24.0 | 0.00 | 0.00 | 0.00 | 36 | 1001.4 |
| 20260504214519 | 60 | 281 | 15.0 | 27.0 | 0.00 | 0.00 | 0.00 | 37 | 1001.2 |
| 20260504214012 | 60 | 263 | 14.0 | 22.0 | 0.00 | 0.00 | 0.00 | 36 | 1001.2 |
| 20260504213503 | 60 | 292 | 12.0 | 25.0 | 0.00 | 0.00 | 0.00 | 36 | 1001.1 |
| 20260504213009 | 60 | 302 | 14.0 | 25.0 | 0.00 | 0.00 | 0.00 | 35 | 1001.1 |
| 20260504212507 | 60 | 284 | 14.0 | 24.0 | 0.00 | 0.00 | 0.00 | 35 | 1001.0 |
| 20260504212003 | 62 | 321 | 12.0 | 24.0 | 0.00 | 0.00 | 0.00 | 36 | 1001.0 |
| 20260504211512 | 62 | 261 | 10.0 | 22.0 | 0.00 | 0.00 | 0.00 | 37 | 1000.9 |
| 20260504211004 | 62 | 296 | 11.0 | 25.0 | 0.00 | 0.00 | 0.00 | 35 | 1000.8 |
| 20260504210504 | 62 | 298 | 15.0 | 25.0 | 0.00 | 0.00 | 0.00 | 34 | 1000.9 |
| 20260504210011 | 62 | 311 | 15.0 | 23.0 | 0.00 | 0.00 | 0.00 | 38 | 1000.9 |
| 20260504205504 | 62 | 290 | 15.0 | 25.0 | 0.00 | 0.00 | 0.00 | 36 | 1000.8 |
| 20260504205007 | 62 | 341 | 13.0 | 25.0 | 0.00 | 0.00 | 0.00 | 38 | 1000.6 |
| 20260504204505 | 62 | 299 | 18.0 | 25.0 | 0.00 | 0.00 | 0.00 | 38 | 1000.6 |
| 20260504204004 | 62 | 305 | 11.0 | 19.0 | 0.00 | 0.00 | 0.00 | 37 | 1000.6 |
| 20260504203503 | 62 | 263 | 14.0 | 22.0 | 0.00 | 0.00 | 0.00 | 36 | 1000.5 |
| 20260504203006 | 62 | 329 | 14.0 | 22.0 | 0.00 | 0.00 | 0.00 | 36 | 1000.6 |
| 20260504202506 | 62 | 302 | 10.0 | 25.0 | 0.00 | 0.00 | 0.00 | 39 | 1000.5 |
| 20260504202004 | 62 | 263 | 15.0 | 25.0 | 0.00 | 0.00 | 0.00 | 37 | 1000.5 |
| 20260504201507 | 62 | 279 | 15.0 | 26.0 | 0.00 | 0.00 | 0.00 | 38 | 1000.6 |
| 20260504201003 | 62 | 281 | 15.0 | 27.0 | 0.00 | 0.00 | 0.00 | 36 | 1000.6 |
| 20260504200503 | 63 | 292 | 20.0 | 31.0 | 0.00 | 0.00 | 0.00 | 36 | 1000.6 |
| 20260504200014 | 63 | 297 | 18.0 | 28.0 | 0.00 | 0.00 | 0.00 | 37 | 1000.4 |
| 20260504195504 | 63 | 275 | 16.0 | 23.0 | 0.00 | 0.00 | 0.00 | 38 | 1000.3 |
| 20260504195007 | 63 | 254 | 12.0 | 26.0 | 0.00 | 0.00 | 0.00 | 36 | 1000.3 |
| 20260504194509 | 62 | 274 | 14.0 | 26.0 | 0.00 | 0.00 | 0.00 | 35 | 1000.3 |
| 20260504194004 | 62 | 326 | 16.0 | 26.0 | 0.00 | 0.00 | 0.00 | 36 | 1000.3 |
| 20260504193509 | 62 | 280 | 14.0 | 22.0 | 0.00 | 0.00 | 0.00 | 36 | 1000.2 |
| 20260504193007 | 63 | 254 | 18.0 | 24.0 | 0.00 | 0.00 | 0.00 | 35 | 1000.0 |
| 20260504192503 | 63 | 270 | 17.0 | 29.0 | 0.00 | 0.00 | 0.00 | 35 | 1000.1 |
| 20260504192005 | 63 | 269 | 20.0 | 29.0 | 0.00 | 0.00 | 0.00 | 33 | 1000.2 |
| 20260504191505 | 62 | 304 | 19.0 | 28.0 | 0.00 | 0.00 | 0.00 | 34 | 1000.2 |
| 20260504191003 | 62 | 280 | 16.0 | 30.0 | 0.00 | 0.00 | 0.00 | 35 | 999.7 |
| 20260504190506 | 63 | 286 | 22.0 | 30.0 | 0.00 | 0.00 | 0.00 | 34 | 999.7 |
| 20260504190008 | 63 | 269 | 15.0 | 24.0 | 0.00 | 0.00 | 0.00 | 36 | 999.6 |
| 20260504185503 | 62 | 257 | 16.0 | 30.0 | 0.00 | 0.00 | 0.00 | 38 | 999.6 |
| 20260504185003 | 62 | 251 | 16.0 | 30.0 | 0.00 | 0.00 | 0.00 | 37 | 999.4 |
| 20260504184507 | 63 | 246 | 13.0 | 21.0 | 0.00 | 0.00 | 0.00 | 37 | 999.5 |
| 20260504184003 | 63 | 315 | 13.0 | 21.0 | 0.00 | 0.00 | 0.00 | 35 | 999.5 |
| 20260504183503 | 63 | 285 | 15.0 | 24.0 | 0.00 | 0.00 | 0.00 | 37 | 999.5 |
| 20260504183005 | 63 | 272 | 17.0 | 24.0 | 0.00 | 0.00 | 0.00 | 37 | 999.4 |
| 20260504182504 | 63 | 259 | 13.0 | 19.0 | 0.00 | 0.00 | 0.00 | 40 | 999.3 |
| 20260504182003 | 63 | 300 | 9.0 | 23.0 | 0.00 | 0.00 | 0.00 | 38 | 999.2 |
| 20260504181509 | 63 | 295 | 11.0 | 25.0 | 0.00 | 0.00 | 0.00 | 38 | 999.2 |
| 20260504181003 | 64 | 264 | 18.0 | 25.0 | 0.00 | 0.00 | 0.00 | 36 | 999.0 |
| 20260504180507 | 64 | 281 | 16.0 | 24.0 | 0.00 | 0.00 | 0.00 | 36 | 999.1 |
| 20260504180008 | 64 | 287 | 17.0 | 25.0 | 0.00 | 0.00 | 0.00 | 37 | 999.0 |
| 20260504175502 | 64 | 281 | 14.0 | 25.0 | 0.00 | 0.00 | 0.00 | 36 | 999.0 |
| 20260504175002 | 64 | 274 | 16.0 | 25.0 | 0.00 | 0.00 | 0.00 | 36 | 999.0 |
| 20260504174507 | 64 | 281 | 14.0 | 25.0 | 0.00 | 0.00 | 0.00 | 37 | 998.9 |
| 20260504174005 | 64 | 269 | 14.0 | 26.0 | 0.00 | 0.00 | 0.00 | 35 | 998.9 |
| 20260504173505 | 64 | 300 | 16.0 | 26.0 | 0.00 | 0.00 | 0.00 | 35 | 998.9 |
| 20260504173008 | 65 | 289 | 11.0 | 25.0 | 0.00 | 0.00 | 0.00 | 35 | 998.6 |
| 20260504172507 | 65 | 289 | 15.0 | 25.0 | 0.00 | 0.00 | 0.00 | 37 | 998.6 |
| 20260504172003 | 65 | 296 | 9.0 | 26.0 | 0.00 | 0.00 | 0.00 | 36 | 998.6 |
| 20260504171508 | 64 | 268 | 15.0 | 26.0 | 0.00 | 0.00 | 0.00 | 39 | 998.5 |
| 20260504171008 | 64 | 279 | 20.0 | 25.0 | 0.00 | 0.00 | 0.00 | 37 | 998.6 |
| 20260504170503 | 64 | 273 | 10.0 | 20.0 | 0.00 | 0.00 | 0.00 | 38 | 998.6 |
| 20260504151005 | 62 | 315 | 13.0 | 22.0 | 0.00 | 0.00 | 0.00 | 37 | 998.3 |
| 20260504150508 | 62 | 317 | 10.0 | 20.0 | 0.00 | 0.00 | 0.00 | 41 | 998.3 |
| 20260504141009 | 62 | 293 | 11.0 | 23.0 | 0.00 | 0.00 | 0.00 | 40 | 997.9 |
| 20260504140507 | 62 | 300 | 14.0 | 21.0 | 0.00 | 0.00 | 0.00 | 41 | 997.7 |
| 20260504130506 | 61 | 292 | 13.0 | 24.0 | 0.00 | 0.00 | 0.00 | 46 | 997.3 |